STARLINK-34403, 64443

Orbit data source: Space-Track

STARLINK-34403, 64443 is a payload satellite owned by SpaceX/Seattle (US) in LEO that was launched on Wed, 18 Jun 2025 UTC via an FALCON 9 launch vehicle from the Air Force Eastern Test Range (AFETR). Payload-class satellites include a variety of spacecraft equipped with specific instruments for various scientific and technological missions. These include communications satellites like Starlink; space stations such as the ISS; scientific satellites like the Hubble; Earth observation satellites from companies like Planet Labs, Umbra, and HawkEye 360; GPS; miniature CubeSats for education and research; and military/defense satellites.

Loading next visibility...
Identifier
64443, 2025-130F
Orbit
LEO
Country
Flag of USUS
Related business
Manufacturer
SpaceX/Seattle
Mission
Operational Commercial Communications
Bus & Motor
STARLINK V2MO, Unknown motor
Mass
575 kg wet, ~530 kg dry
Launch date (UTC)
2025-06-18 (1 year ago)
Launch vehicle
FALCON 9
Launch site
Air Force Eastern Test Range (AFETR)
Object type
Payload
Rocket body
Debris
Shape & HBR
Box + 2 Pan, 17.7 m
Radar Cross Section
36.964 m², Large (>1 m²)

Expand to show TLE details & history
Last TLE update: 17 hours ago

TLE from 17 hours ago
0 STARLINK-34403
1 64443U 25130F   26171.15117353  .00013010  00000-0  45060-3 0  9998
2 64443  53.1617 332.3805 0001116  94.8814 265.2314 15.30199844 56393
Epoch: 2026-06-20T03:37Z
TLE epoch observation values (Epoch: 2026-06-20T03:37:41.392Z)
Latitude
-0.00001°
Longitude
9.5881°
Altitude
476.179 km
Speed
7.629 km/s
True Right ascension
22h 09m 31s
True Declination
0° 00' 00"
Sunlit
Object was in full shadow at epoch
Visualization orbit readout
Latitude
Unknown
Longitude
Unknown
Altitude
Unknown
Speed
Unknown
Apparent Right ascension
Unknown
Apparent Declination
Unknown
Sunlit
N/A
Visualization observer readout
Local Sidereal Time
07:13:13
Azimuth
Unknown
Elevation
Unknown
Doppler factor
Unknown
Orbital elements
Apogee altitude
476.237 km
Perigee altitude
474.707 km
Semi-major axis
6,853.609 km
Eccentricity
0.00011
Inclination
53.1617°
RAAN
332.3805°
Arg. of periapsis
94.8814°
True anomaly
265.21866°
Mean anomaly
265.2314°
Eccentric anomaly
265.22503°
Mean motion
3.82529 °/min
Orbital period
94.11 mins
BSTAR
0.0004506
Loading maneuver chart data...
Computing Atmospheric mass density...
Loading historical data...
Loading historical data...
Loading historical data...
Loading historical data...
Loading historical data...
Loading historical data...
Loading historical data...

Documentation

Showing up to 5 results
|